GW4956 Weather Reports


time (UTC)temp
C
wind
direction
speed
KPH
gust
KPH
rain 1hr
cm
rain 24hr
cm
rain mn
cm
humidity
%
barometer
mb
20260505124932 12 159 4.8 4.8 0.00 0.00 0.00 47 1010.3
20260505124429 12 60 3.2 4.8 0.00 0.00 0.00 46 1010.3
20260505123925 12 57 3.2 3.2 0.00 0.00 0.00 46 1010.2
20260505123422 12 92 3.2 4.8 0.00 0.00 0.00 45 1010.2
20260505122917 13 120 3.2 4.8 0.00 0.00 0.00 44 1010.0
20260505122415 13 155 4.8 4.8 0.00 0.00 0.00 44 1010.0
20260505121911 13 106 8.0 9.7 0.00 0.00 0.00 43 1010.0
20260505121409 13 41 1.6 1.6 0.00 0.00 0.00 43 1009.9
20260505120904 13 102 9.7 12.9 0.00 0.00 0.00 43 1009.8
20260505120401 13 102 6.4 9.7 0.00 0.00 0.00 43 1009.8
20260505115900 13 87 8.0 11.3 0.00 0.00 0.00 43 1009.6
20260505115357 13 91 9.7 14.5 0.00 0.00 0.00 43 1009.5
20260505114855 13 94 6.4 12.9 0.00 0.00 0.00 42 1009.5
20260505114351 13 78 4.8 6.4 0.00 0.00 0.00 42 1009.4
20260505113847 14 66 4.8 6.4 0.00 0.00 0.00 41 1009.2
20260505113344 14 10 4.8 6.4 0.00 0.00 0.00 40 1009.4
20260505112840 14 22 1.6 1.6 0.00 0.00 0.00 40 1009.4
20260505112337 15 151 9.7 12.9 0.00 0.00 0.00 40 1009.0
20260505111833 15 76 8.0 11.3 0.00 0.00 0.00 39 1009.2
20260505111329 15 127 6.4 9.7 0.00 0.00 0.00 39 1009.1
20260505110825 15 97 8.0 16.1 0.00 0.00 0.00 38 1008.9
20260505110322 15 106 11.3 16.1 0.00 0.00 0.00 38 1008.9
20260505101757 16 118 8.0 12.9 0.00 0.00 0.00 37 1008.2
20260505101252 16 26 3.2 4.8 0.00 0.00 0.00 37 1008.0
20260505100749 15 113 4.8 6.4 0.00 0.00 0.00 39 1007.8
20260505100245 15 34 0.0 0.0 0.00 0.00 0.00 40 1007.9
20260505095741 15 37 0.0 0.0 0.00 0.00 0.00 40 1007.8
20260505095239 15 26 0.0 0.0 0.00 0.00 0.00 41 1007.6
20260505094734 13 21 0.0 0.0 0.00 0.00 0.00 44 1007.6
20260505094231 13 332 3.2 3.2 0.00 0.00 0.00 50 1007.6
20260505093727 13 354 1.6 1.6 0.00 0.00 0.00 48 1007.6
20260505093225 13 29 0.0 0.0 0.00 0.00 0.00 48 1007.3
20260505092722 12 342 3.2 3.2 0.00 0.00 0.00 53 1007.3
20260505092221 12 334 1.6 1.6 0.00 0.00 0.00 53 1007.3
20260505091717 12 337 3.2 3.2 0.00 0.00 0.00 55 1007.4
20260505091215 12 343 1.6 1.6 0.00 0.00 0.00 55 1007.3
20260505090713 12 351 0.0 0.0 0.00 0.00 0.00 55 1007.3
20260505090211 12 316 3.2 4.8 0.00 0.00 0.00 55 1007.4
20260505085708 12 326 4.8 4.8 0.00 0.00 0.00 55 1007.3
20260505085206 12 312 6.4 6.4 0.00 0.00 0.00 56 1007.2
20260505084703 12 346 0.0 0.0 0.00 0.00 0.00 55 1007.2
20260505084202 12 3 0.0 0.0 0.00 0.00 0.00 54 1007.1
20260505083658 13 296 8.0 9.7 0.00 0.00 0.00 53 1006.9
20260505083155 13 317 9.7 11.3 0.00 0.00 0.00 50 1007.1
20260505082651 14 308 4.8 4.8 0.00 0.00 0.00 47 1006.8
20260505082148 14 328 0.0 1.6 0.00 0.00 0.00 47 1006.8
20260505081644 15 310 3.2 3.2 0.00 0.00 0.00 45 1007.0
20260505081142 15 355 0.0 0.0 0.00 0.00 0.00 44 1006.8
20260505080638 15 337 1.6 1.6 0.00 0.00 0.00 43 1006.6
20260505080134 15 324 3.2 3.2 0.00 0.00 0.00 43 1006.5
20260505075631 15 332 1.6 1.6 0.00 0.00 0.00 44 1006.7
20260505075128 15 356 0.0 0.0 0.00 0.00 0.00 43 1006.6
20260505074624 16 287 0.0 1.6 0.00 0.00 0.00 42 1006.5
20260505074121 16 37 0.0 0.0 0.00 0.00 0.00 40 1006.5
20260505073619 15 354 1.6 1.6 0.00 0.00 0.00 42 1006.5
20260505073117 15 5 0.0 1.6 0.00 0.00 0.00 44 1006.5
20260505072612 14 58 3.2 3.2 0.00 0.00 0.00 46 1006.4
20260505072109 14 357 3.2 3.2 0.00 0.00 0.00 47 1005.9
20260505071605 14 313 8.0 9.7 0.00 0.00 0.00 46 1005.6
20260505071103 14 304 6.4 6.4 0.00 0.00 0.00 47 1005.8
20260505070600 14 312 6.4 9.7 0.00 0.00 0.00 47 1005.6
20260505070056 14 343 3.2 3.2 0.00 0.00 0.00 47 1005.4
20260505065552 14 10 3.2 3.2 0.00 0.00 0.00 46 1005.6
20260505065049 15 331 4.8 4.8 0.00 0.00 0.00 45 1005.6
20260505064546 15 2 1.6 1.6 0.00 0.00 0.00 44 1005.5
20260505064044 15 304 4.8 6.4 0.00 0.00 0.00 43 1005.4
20260505063541 15 1 1.6 1.6 0.00 0.00 0.00 43 1005.4
20260505063037 15 3 3.2 3.2 0.00 0.00 0.00 44 1005.5
20260505062534 15 301 6.4 9.7 0.00 0.00 0.00 44 1005.3
20260505062031 15 312 6.4 9.7 0.00 0.00 0.00 44 1005.4
20260505061528 15 299 6.4 11.3 0.00 0.00 0.00 43 1005.1
20260505061026 15 303 8.0 11.3 0.00 0.00 0.00 43 1005.3
20260505060523 15 315 9.7 12.9 0.00 0.00 0.00 43 1005.1
20260505060020 15 318 9.7 12.9 0.00 0.00 0.00 41 1005.4
20260505055515 15 321 6.4 6.4 0.00 0.00 0.00 41 1005.0
20260505055012 15 302 9.7 12.9 0.00 0.00 0.00 42 1005.0
20260505054510 15 274 4.8 6.4 0.00 0.00 0.00 41 1005.3
20260505054008 15 272 9.7 14.5 0.00 0.00 0.00 41 1005.0
20260505053504 15 313 3.2 4.8 0.00 0.00 0.00 41 1005.1
20260505053001 15 17 3.2 3.2 0.00 0.00 0.00 41 1005.3
20260505052458 16 295 4.8 6.4 0.00 0.00 0.00 40 1005.1
20260505051955 16 306 4.8 4.8 0.00 0.00 0.00 40 1005.1
20260505051452 16 324 4.8 4.8 0.00 0.00 0.00 40 1005.4
20260505050950 16 323 1.6 3.2 0.00 0.00 0.00 39 1005.3
20260505050448 16 6 3.2 4.8 0.00 0.00 0.00 40 1005.1
20260505041416 17 338 4.8 6.4 0.00 0.00 0.00 39 1005.1
20260505040913 17 305 6.4 6.4 0.00 0.00 0.00 39 1005.0
20260505040411 17 341 4.8 6.4 0.00 0.00 0.00 38 1005.3
20260505035907 17 321 4.8 6.4 0.00 0.00 0.00 38 1005.0
20260505035403 18 316 6.4 9.7 0.00 0.00 0.00 38 1005.3
20260505034901 18 10 1.6 3.2 0.00 0.00 0.00 37 1005.0
20260505034357 18 304 6.4 9.7 0.00 0.00 0.00 37 1005.1
20260505033854 18 346 6.4 6.4 0.00 0.00 0.00 36 1005.0
20260505033351 18 323 6.4 6.4 0.00 0.00 0.00 36 1005.1
20260505032849 19 313 6.4 9.7 0.00 0.00 0.00 35 1004.9
20260505032345 19 314 6.4 9.7 0.00 0.00 0.00 34 1004.9
20260505031842 20 357 3.2 4.8 0.00 0.00 0.00 32 1005.0
20260505031339 20 332 6.4 6.4 0.00 0.00 0.00 31 1004.8
20260505030836 20 5 4.8 4.8 0.00 0.00 0.00 31 1004.8
20260505030332 20 300 6.4 9.7 0.00 0.00 0.00 30 1004.6
20260505025828 21 0 8.0 11.3 0.00 0.00 0.00 29 1004.8
20260505025325 21 344 4.8 4.8 0.00 0.00 0.00 27 1004.7
20260505024824 22 314 8.0 9.7 0.00 0.00 0.00 26 1004.8
20260505024321 22 291 6.4 6.4 0.00 0.00 0.00 26 1004.8
20260505023818 22 350 3.2 3.2 0.00 0.00 0.00 25 1004.8
20260505023315 23 323 4.8 4.8 0.00 0.00 0.00 24 1004.7
20260505022812 23 321 11.3 12.9 0.00 0.00 0.00 23 1004.8
20260505022309 24 292 8.0 9.7 0.00 0.00 0.00 23 1004.6
20260505021806 24 311 12.9 16.1 0.00 0.00 0.00 22 1004.7
20260505021303 25 308 14.5 17.7 0.00 0.00 0.00 21 1004.9
20260505020759 25 318 14.5 17.7 0.00 0.00 0.00 22 1004.8
20260505020254 25 333 8.0 12.9 0.00 0.00 0.00 21 1004.5
20260505015752 25 312 16.1 17.7 0.00 0.00 0.00 21 1004.7
20260505015248 25 31 8.0 14.5 0.00 0.00 0.00 22 1004.6
20260505014746 25 337 9.7 14.5 0.00 0.00 0.00 22 1005.0
20260505014243 25 286 17.7 25.7 0.00 0.00 0.00 22 1004.5
20260505013739 25 349 14.5 14.5 0.00 0.00 0.00 22 1004.9
20260505013237 26 301 12.9 14.5 0.00 0.00 0.00 22 1004.8
20260505012735 26 279 14.5 17.7 0.00 0.00 0.00 22 1004.9
20260505012232 26 291 12.9 16.1 0.00 0.00 0.00 23 1004.8
20260505011727 26 287 14.5 17.7 0.00 0.00 0.00 23 1005.1
20260505011225 26 320 17.7 22.5 0.00 0.00 0.00 23 1005.1
20260505010720 26 289 12.9 17.7 0.00 0.00 0.00 24 1005.1
20260505010217 26 34 11.3 14.5 0.00 0.00 0.00 24 1005.3
20260505005713 26 304 8.0 11.3 0.00 0.00 0.00 23 1005.5
20260505005211 26 311 16.1 17.7 0.00 0.00 0.00 23 1005.4
20260505004708 26 300 9.7 12.9 0.00 0.00 0.00 22 1005.5
20260505004204 26 327 12.9 14.5 0.00 0.00 0.00 22 1005.4
20260505003701 26 288 14.5 17.7 0.00 0.00 0.00 20 1005.4
20260505003159 26 314 11.3 14.5 0.00 0.00 0.00 21 1005.4
20260505002655 26 232 12.9 14.5 0.00 0.00 0.00 21 1005.5
20260505002153 26 327 17.7 25.7 0.00 0.00 0.00 20 1005.7
20260505001649 26 301 11.3 16.1 0.00 0.00 0.00 20 1005.6
20260505001147 26 329 9.7 12.9 0.00 0.00 0.00 17 1005.7
20260505000644 26 278 20.9 29.0 0.00 0.00 0.00 19 1005.8
20260505000142 26 356 14.5 20.9 0.00 0.00 0.00 20 1005.8
20260504235638 26 296 16.1 20.9 0.00 0.00 0.00 20 1005.9
20260504235135 26 262 19.3 24.1 0.00 0.00 0.00 19 1005.7
20260504234632 26 21 6.4 9.7 0.00 0.00 0.00 17 1006.0
20260504234130 26 350 9.7 17.7 0.00 0.00 0.00 17 1006.0
20260504233625 26 271 20.9 27.4 0.00 0.00 0.00 19 1006.1
20260504233121 26 302 14.5 20.9 0.00 0.00 0.00 18 1005.9
20260504232619 26 20 9.7 14.5 0.00 0.00 0.00 17 1006.1
20260504232116 26 297 11.3 14.5 0.00 0.00 0.00 17 1006.1
20260504231613 26 16 12.9 17.7 0.00 0.00 0.00 18 1006.1
20260504231109 26 299 8.0 11.3 0.00 0.00 0.00 17 1006.1
20260504230604 26 0 11.3 12.9 0.00 0.00 0.00 16 1006.4
20260504230104 26 269 20.9 24.1 0.00 0.00 0.00 17 1006.1
20260504225601 26 287 12.9 17.7 0.00 0.00 0.00 15 1006.2
20260504225058 26 289 11.3 12.9 0.00 0.00 0.00 18 1006.5
20260504224554 26 41 9.7 12.9 0.00 0.00 0.00 17 1006.5
20260504224051 26 3 19.3 22.5 0.00 0.00 0.00 18 1006.5
20260504223548 26 237 17.7 22.5 0.00 0.00 0.00 16 1006.7
20260504223044 26 311 14.5 17.7 0.00 0.00 0.00 17 1006.4
20260504222541 26 335 4.8 9.7 0.00 0.00 0.00 18 1006.8
20260504222038 26 292 14.5 17.7 0.00 0.00 0.00 15 1006.8
20260504221536 26 291 22.5 25.7 0.00 0.00 0.00 14 1007.0
20260504221032 26 303 17.7 22.5 0.00 0.00 0.00 15 1006.8
20260504220529 26 313 16.1 17.7 0.00 0.00 0.00 18 1007.0
20260504220026 26 315 9.7 12.9 0.00 0.00 0.00 16 1007.3
20260504215522 26 245 12.9 17.7 0.00 0.00 0.00 16 1007.3
20260504215020 26 309 11.3 14.5 0.00 0.00 0.00 16 1007.3
20260504214516 26 7 19.3 25.7 0.00 0.00 0.00 15 1007.3
20260504214012 25 293 9.7 12.9 0.00 0.00 0.00 18 1007.3
20260504213508 25 273 16.1 24.1 0.00 0.00 0.00 17 1007.6
20260504213006 25 265 17.7 22.5 0.00 0.00 0.00 16 1007.6
20260504212501 25 17 6.4 9.7 0.00 0.00 0.00 18 1007.6
20260504211959 25 250 9.7 20.9 0.00 0.00 0.00 18 1007.9
20260504211456 25 296 16.1 20.9 0.00 0.00 0.00 20 1007.6
20260504210953 25 272 11.3 14.5 0.00 0.00 0.00 21 1008.1
20260504210450 25 342 17.7 22.5 0.00 0.00 0.00 22 1007.9
20260504205947 25 331 9.7 11.3 0.00 0.00 0.00 23 1007.8
20260504205444 25 300 16.1 17.7 0.00 0.00 0.00 21 1008.2
20260504204942 25 5 12.9 17.7 0.00 0.00 0.00 21 1008.2
20260504204440 25 300 8.0 12.9 0.00 0.00 0.00 22 1008.1
20260504203939 25 262 14.5 16.1 0.00 0.00 0.00 24 1008.3
20260504203437 25 283 14.5 20.9 0.00 0.00 0.00 21 1008.5
20260504202932 25 318 8.0 14.5 0.00 0.00 0.00 23 1008.2
20260504202429 25 266 9.7 11.3 0.00 0.00 0.00 24 1008.2
20260504201926 25 255 9.7 14.5 0.00 0.00 0.00 22 1008.7
20260504201423 24 328 14.5 16.1 0.00 0.00 0.00 25 1008.4
20260504200921 24 341 4.8 6.4 0.00 0.00 0.00 26 1008.7
20260504200417 24 3 8.0 9.7 0.00 0.00 0.00 25 1008.7
20260504195914 24 290 11.3 12.9 0.00 0.00 0.00 24 1008.5
20260504195410 23 24 11.3 12.9 0.00 0.00 0.00 24 1008.7
20260504194907 23 6 16.1 17.7 0.00 0.00 0.00 26 1008.7
20260504194402 24 44 14.5 16.1 0.00 0.00 0.00 25 1008.9
20260504193859 23 9 6.4 6.4 0.00 0.00 0.00 26 1009.1
20260504193356 23 337 14.5 17.7 0.00 0.00 0.00 25 1008.9
20260504192855 23 7 11.3 14.5 0.00 0.00 0.00 26 1009.0
20260504192352 23 345 6.4 6.4 0.00 0.00 0.00 24 1009.1
20260504191850 23 311 8.0 11.3 0.00 0.00 0.00 26 1009.0
20260504191348 23 294 8.0 12.9 0.00 0.00 0.00 27 1009.1
20260504190843 23 292 14.5 14.5 0.00 0.00 0.00 27 1009.3
20260504190339 23 291 8.0 12.9 0.00 0.00 0.00 27 1009.2
20260504185836 23 356 8.0 9.7 0.00 0.00 0.00 27 1009.2
20260504185333 23 21 9.7 14.5 0.00 0.00 0.00 29 1009.3
20260504184829 22 279 12.9 16.1 0.00 0.00 0.00 29 1009.6
20260504184325 22 327 4.8 6.4 0.00 0.00 0.00 29 1009.6
20260504183821 22 37 9.7 11.3 0.00 0.00 0.00 29 1009.9
20260504183318 22 310 8.0 11.3 0.00 0.00 0.00 32 1009.6
20260504182816 22 354 8.0 11.3 0.00 0.00 0.00 29 1009.8
20260504182313 22 265 11.3 14.5 0.00 0.00 0.00 30 1009.8
20260504181810 22 22 6.4 9.7 0.00 0.00 0.00 30 1009.8
20260504181308 22 325 16.1 20.9 0.00 0.00 0.00 29 1010.0
20260504180807 22 307 4.8 4.8 0.00 0.00 0.00 28 1010.1
20260504180305 22 303 9.7 12.9 0.00 0.00 0.00 28 1010.0
20260504175803 22 343 1.6 3.2 0.00 0.00 0.00 28 1009.9
20260504175259 21 295 4.8 6.4 0.00 0.00 0.00 29 1010.0
20260504174757 21 8 9.7 12.9 0.00 0.00 0.00 30 1010.1
20260504174254 21 347 6.4 9.7 0.00 0.00 0.00 29 1010.3
20260504173751 21 318 8.0 11.3 0.00 0.00 0.00 30 1010.3
20260504173248 21 302 9.7 12.9 0.00 0.00 0.00 29 1010.1
20260504172744 21 26 8.0 9.7 0.00 0.00 0.00 30 1010.2
20260504172241 20 291 9.7 11.3 0.00 0.00 0.00 33 1010.0
20260504171737 21 343 6.4 9.7 0.00 0.00 0.00 32 1010.1
20260504171234 20 212 3.2 3.2 0.00 0.00 0.00 33 1010.1
20260504170732 20 316 9.7 11.3 0.00 0.00 0.00 33 1010.3
20260504170229 20 289 9.7 12.9 0.00 0.00 0.00 34 1010.3
20260504160147 18 150 3.2 3.2 0.00 0.00 0.00 36 1010.6
20260504151114 17 52 0.0 1.6 0.00 0.00 0.00 36 1011.0
20260504150612 17 35 0.0 0.0 0.00 0.00 0.00 38 1010.7
20260504150109 16 45 0.0 0.0 0.00 0.00 0.00 40 1010.9
20260504141038 12 22 0.0 0.0 0.00 0.00 0.00 54 1010.9
20260504140534 11 22 0.0 0.0 0.00 0.00 0.00 56 1010.7